Regional Weather Roundup
Issued by NWS

Home | Current Version | Previous Version | Graphics & Text | Print | Product List | Glossary On
Versions: 1 2 3 4 5 6 7 8 9 10 11 12 13 14 15 16 17 18 19 20 21 22 23 24 25 26 27 28 29 30 31 32 33 34 35 36 37 38 39 40 41 42 43 44 45 46 47 48 49 50
336
ASUS44 KLIX 231101
RWRLA
LOUISIANA WEATHER ROUNDUP
NATIONAL WEATHER SERVICE NEW ORLEANS LA
600 AM CDT SAT AUG 23 2014

NOTE: "FAIR" INDICATES FEW OR NO CLOUDS BELOW 12,000 FEET WITH NO
      SIGNIFICANT WEATHER AND/OR OBSTRUCTIONS TO VISIBILITY.
      SKY/WX - SKY CONDITION AND SIGNIFICANT WEATHER.
      TMP - AIR TEMPERATURE.    DP   - DEWPOINT TEMPERATURE.
      RH  - RELATIVE HUMIDITY.  PRES - PRESSURE.
      HX  - HEAT INDEX.         WCI  - WIND CHILL INDEX.

*  THESE STATIONS ARE NOT NWS OR FAA STATIONS AND ARE NOT UNDER
   NWS QUALITY CONTROL.

LAZ040-048-061>063-065-066-069-231200-
SOUTHEAST LOUISIANA

CITY           SKY/WX    TMP DP  RH WIND       PRES   REMARKS
N.O. AUDUBON     N/A     79  78  98 MISG        N/A
N.O. INTL ARPT PTCLDY    79  76  90 NW5       30.02R
N.O. LAKEFRONT CLEAR     84  78  82 NW14      30.02R HX  95
N.O. DOWNTOWN* FAIR      82  73  74 NW6       30.03R
SLIDELL        CLEAR     76  73  91 CALM      30.02R
BATON ROUGE    CLEAR     77  74  90 CALM      30.03R
BOOTHVILLE     CLEAR     82  78  88 NW6       30.02R
BELLE CHASSE   PTCLDY    77  73  87 CALM      30.02R
BOGALUSA*        N/A     76  73  88 CALM      30.04R
GALLIANO*      NOT AVBL
NEW ROADS*     FAIR      74  73  98 CALM      30.03R
GONZALES*      FAIR      77  77 100 CALM      30.02R
HAMMOND*       NOT AVBL
HOUMA*         CLEAR     75  72  91 CALM      30.02R FOG
PORT FOURCHON* MOSUNNY   84  75  74 CALM      30.03R

$$

LAZ041-044-053-054-231200-
SOUTHWEST LOUISIANA

CITY           SKY/WX    TMP DP  RH WIND       PRES   REMARKS
LAKE CHARLES   CLEAR     78  76  93 CALM      30.02R
LAFAYETTE      CLEAR     78  76  93 CALM      30.03R
PATTERSON      CLEAR     77  75  94 CALM      30.05R
SALT POINT       N/A     83  79  88 CALM      30.01R
NEW IBERIA     CLEAR     76  75  97 CALM      30.03R FOG
CHENAULT AIRPK NOT AVBL

$$

LAZ027-028-231200-
CENTRAL LOUISIANA

CITY           SKY/WX    TMP DP  RH WIND       PRES   REMARKS
FORT POLK      CLEAR     74  72  93 CALM      30.03R
ALEXANDRIA INT CLEAR     73  72  96 CALM      30.01R
ALEXANDRIA     CLEAR     73  70  90 CALM      30.03R

$$

LAZ001-002-231200-
NORTHWEST LOUISIANA

CITY           SKY/WX    TMP DP  RH WIND       PRES   REMARKS
SHREVEPORT     CLEAR     73  70  90 CALM      30.02R
BARKSDALE AFB  CLEAR     71  71  98 E2        30.02R
DTN SHREVEPORT CLEAR     74  71  91 CALM      30.02R

$$

LAZ014-016-231200-
NORTHEAST LOUISIANA

CITY           SKY/WX    TMP DP  RH WIND       PRES   REMARKS
MONROE         CLEAR     72  71  97 CALM      30.03S FOG
TALLULAH       CLEAR     70  69  97 CALM      30.03R FOG

$$




USA.gov is the U.S. government's official web portal to all federal, state and local government web resources and services.